{"data":{"norad_id":66642,"intl_designator":"2025-271AB","name":"STARLINK-35926","alt_names":[],"object_type":"PAYLOAD","status":"ACTIVE","operator":null,"country":"US","launch_date":"2025-11-23","launch_site_code":"AFWTR","launch_vehicle":null,"mission":null,"orbit_class":"UNKNOWN","rcs_meters":null,"size_class":null,"mass_kg":null,"dimensions":null,"purposes":["comms"],"wikipedia_slug":null,"has_3d_model":false,"image_url":null,"decayed_at":null,"tle_current":{"epoch":"2026-09-20T10:36:03.609216Z","epoch_age_seconds":91741,"freshness":"FRESH","line1":"1 66642U 25271AB  26263.44170844  .00015274  00000+0  46195-3 0  9998","line2":"2 66642  53.1591 313.9428 0001291  85.1173 274.9977 15.34422304 47361","mean_motion":15.34422304,"eccentricity":0.0001291,"inclination_deg":53.1591,"raan_deg":313.9428,"arg_perigee_deg":85.1173,"mean_anomaly_deg":274.9977,"bstar":0.00046195,"rev_number":4736,"period_min":93.846393932501,"perigee_km":461.75380490497,"apogee_km":463.52009273855,"semimajor_km":6840.7739488218,"source":"CELESTRAK","updated_at":"2026-09-21T09:00:35.987238Z"}}}